Printer-friendly version

IAU Minor Planet Center

Minor Planet Center

MPEC 2006-E50 : 2006 EN67

The following Minor Planet Electronic Circular may be linked-to from your own Web pages, but must not otherwise be redistributed electronically.


Read MPEC 2006-E49 Read MPEC 2006-E51


M.P.E.C. 2006-E50                                Issued 2006 Mar. 13, 14:57 UT

     The Minor Planet Electronic Circulars contain information on unusual
         minor planets and routine data on comets.  They are published
   on behalf of Commission 20 of the International Astronomical Union by the
          Minor Planet Center, Smithsonian Astrophysical Observatory,
                          Cambridge, MA 02138, U.S.A.

                  Supported in part by the Brinson Foundation
                  Supported in part by the TABASGO Foundation
             Prepared using the Tamkin Foundation Computer Network

                              MPC@CFA.HARVARD.EDU
          URL http://cfa-www.harvard.edu/iau/mpc.html  ISSN 1523-6714

                                   2006 EN67

Observations:
     K06E67N* C2006 03 09.19299 10 02 09.70 +09 46 27.6          20.2 V EE050G96
     K06E67N  C2006 03 09.19896 10 02 08.95 +09 46 23.0          20.7 V EE050G96
     K06E67N  C2006 03 09.20494 10 02 08.19 +09 46 18.6          20.1 V EE050G96
     K06E67N  C2006 03 09.21089 10 02 07.47 +09 46 13.9          19.8 V EE050G96
     K06E67N  C2006 03 09.23627 10 02 04.41 +09 45 55.8          20.4 V EE050G96
     K06E67N  C2006 03 09.24584 10 02 03.26 +09 45 49.4          20.2 V EE050G96
     K06E67N  C2006 03 09.25540 10 02 02.11 +09 45 42.0          20.4 V EE050G96
     K06E67N  C2006 03 09.26501 10 02 00.92 +09 45 35.1          20.4 V EE050G96
     K06E67N  C2006 03 09.93087 10 00 43.60 +09 37 22.9                 EE050J95
     K06E67N  C2006 03 09.94018 10 00 42.47 +09 37 13.8                 EE050J95
     K06E67N  C2006 03 09.94881 10 00 41.46 +09 37 07.3          19.8 R EE050J95

Observer details:
G96 Mt. Lemmon Survey.  Observer R. A. Kowalski.  Measurers E. C. Beshore,
    E. J. Christensen, G. J. Garradd, A. R. Gibbs, A. D. Grauer, R. E. Hill,
    R. A. Kowalski, S. M. Larson, R. H. McNaught.  1.5-m reflector + CCD.
J95 Great Shefford.  Observer P. Birtwhistle.  0.40-m f/6.0 Schmidt-Cassegrain
    + CCD.

Orbital elements:
2006 EN67                                                Earth MOID = 0.3849 AU
Epoch 2006 Mar. 6.0 TT = JDT 2453800.5                  MPC
M 323.62296              (2000.0)            P               Q
n   0.31657796     Peri.  261.01433     -0.49989291     +0.85936117
a   2.1321394      Node   337.95534     -0.63807168     -0.44953347
e   0.4171393      Incl.   16.67989     -0.58563778     -0.24375815
P   3.11           H   19.4           G   0.15           U   9
Residuals in seconds of arc
060309 G96  0.8+  0.1+    060309 G96  0.2+  0.2-    060309 J95 (0.4+  2.2+)
060309 G96  0.4+  0.2-    060309 G96  0.4+  0.4+    060309 J95  0.1+  0.0
060309 G96  0.1-  0.2-    060309 G96  0.6+  0.0     060309 J95  0.5+  0.1-
060309 G96  0.1-  0.6-    060309 G96  0.2+  0.1+

Ephemeris:
2006 EN67                a,e,i = 2.13, 0.42, 17                  q = 1.2427
Date    TT    R. A. (2000) Decl.     Delta      r     Elong.  Phase     V
2006 03 06    10 08.43   +10 24.2    0.659    1.638   165.2     8.9    20.2
2006 03 16    09 49.43   +08 18.6    0.640    1.585   151.2    17.6    20.4
2006 03 26    09 33.87   +05 55.0    0.639    1.534   138.1    25.8    20.5
2006 04 05    09 23.75   +03 20.8    0.653    1.484   126.4    32.8    20.7
2006 04 15    09 19.75   +00 40.1    0.676    1.437   116.4    38.7    20.9
2006 04 25    09 21.54   -02 05.6    0.702    1.394   108.1    43.3    21.0
2006 05 05    09 28.56   -04 57.8    0.728    1.354   101.3    46.9    21.1
2006 05 15    09 40.13   -07 58.6    0.751    1.319    95.8    49.7    21.2
2006 05 25    09 55.73   -11 09.0    0.772    1.290    91.5    51.7    21.3
2006 06 04    10 15.10   -14 29.7    0.789    1.267    88.3    53.2    21.4
2006 06 14    10 38.15   -17 59.4    0.804    1.252    86.1    54.1    21.4
2006 06 24    11 04.93   -21 34.5    0.817    1.244    84.7    54.5    21.4
2006 07 04    11 35.69   -25 09.4    0.831    1.244    84.0    54.4    21.5
2006 07 14    12 10.60   -28 35.2    0.848    1.252    83.8    53.8    21.5
2006 07 24    12 49.66   -31 39.9    0.870    1.267    84.1    52.9    21.6
2006 08 03    13 32.52   -34 10.9    0.901    1.290    84.4    51.5    21.6
2006 08 13    14 18.13   -35 56.2    0.942    1.320    84.8    49.9    21.7
2006 08 23    15 04.96   -36 48.6    0.996    1.355    84.9    48.0    21.9
2006 09 02    15 51.27   -36 48.2    1.063    1.394    84.5    46.1    22.0

Timothy B. Spahr             (C) Copyright 2006 MPC           M.P.E.C. 2006-E50

Read MPEC 2006-E49 Read MPEC 2006-E51


Our Web policy. Index to the CBAT/MPC/ICQ pages.


Valid HTML 4.01!